CW7104 Weather Reports


time (UTC)temp
C
wind
direction
speed
KPH
gust
KPH
rain 1hr
cm
rain 24hr
cm
rain mn
cm
humidity
%
barometer
mb
20260904215904 37 240 0.0 0.0 0.00 0.00 0.00 40 1011.9
20260904215404 37 240 0.0 0.0 0.00 0.00 0.00 43 1011.9
20260904214905 37 240 0.0 0.0 0.00 0.00 0.00 42 1012.1
20260904214404 37 240 0.0 0.0 0.00 0.00 0.00 42 1012.2
20260904213904 38 240 0.0 0.0 0.00 0.00 0.00 40 1012.2
20260904213405 38 241 0.0 0.0 0.00 0.00 0.00 39 1012.3
20260904212905 38 241 0.0 0.0 0.00 0.00 0.00 38 1012.3
20260904211905 38 222 0.0 0.0 0.00 0.00 0.00 38 1012.4
20260904211405 38 221 0.0 0.0 0.00 0.00 0.00 38 1012.5
20260904210904 38 221 0.0 0.0 0.00 0.00 0.00 43 1012.5
20260904210405 37 221 0.0 0.0 0.00 0.00 0.00 43 1012.6
20260904205404 36 222 0.0 0.0 0.00 0.00 0.00 45 1012.8
20260904204905 36 222 0.0 0.0 0.00 0.00 0.00 44 1012.8
20260904203904 37 197 0.0 1.6 0.00 0.00 0.00 42 1012.8
20260904203404 38 229 0.0 12.9 0.00 0.00 0.00 41 1012.9
20260904202904 37 176 0.0 8.0 0.00 0.00 0.00 42 1012.9
20260904202404 37 211 0.0 0.0 0.00 0.00 0.00 42 1013.0
20260904201904 37 157 0.0 0.0 0.00 0.00 0.00 41 1013.0
20260904201405 38 157 0.0 0.0 0.00 0.00 0.00 40 1013.0
20260904200905 38 177 0.0 11.3 0.00 0.00 0.00 39 1013.1
20260904200405 39 147 0.0 0.0 0.00 0.00 0.00 40 1013.1
20260904195904 39 159 0.0 0.0 0.00 0.00 0.00 40 1013.2
20260904195405 39 213 0.0 0.0 0.00 0.00 0.00 39 1013.4
20260904194904 39 185 0.0 1.6 0.00 0.00 0.00 39 1013.4
20260904194404 39 203 0.0 1.6 0.00 0.00 0.00 39 1013.5
20260904193905 39 203 0.0 0.0 0.00 0.00 0.00 39 1013.6
20260904193404 38 181 0.0 0.0 0.00 0.00 0.00 39 1013.7
20260904192904 38 211 1.6 11.3 0.00 0.00 0.00 41 1013.7
20260904192404 38 195 0.0 0.0 0.00 0.00 0.00 42 1013.8
20260904191905 38 151 0.0 3.2 0.00 0.00 0.00 43 1013.9
20260904191404 37 199 1.6 9.7 0.00 0.00 0.00 43 1014.0
20260904190904 37 225 0.0 1.6 0.00 0.00 0.00 44 1014.0
20260904190404 36 259 0.0 0.0 0.00 0.00 0.00 46 1014.1
20260904185905 37 261 0.0 0.0 0.00 0.00 0.00 42 1014.2
20260904185404 37 261 0.0 1.6 0.00 0.00 0.00 41 1014.2
20260904161404 35 267 0.0 0.0 0.00 0.00 0.00 53 1015.6
20260904160905 35 267 0.0 0.0 0.00 0.00 0.00 54 1015.6
20260904155904 35 266 1.6 8.0 0.00 0.00 0.00 53 1015.6
20260904155404 35 224 0.0 9.7 0.00 0.00 0.00 53 1015.5
20260904154404 34 226 0.0 0.0 0.00 0.00 0.00 54 1015.6
20260904153904 34 209 0.0 0.0 0.00 0.00 0.00 54 1015.6
20260904153404 34 283 0.0 0.0 0.00 0.00 0.00 55 1015.5
20260904152904 34 229 0.0 0.0 0.00 0.00 0.00 55 1015.6
20260904151904 33 185 0.0 0.0 0.00 0.00 0.00 55 1015.7
20260904151404 33 235 0.0 0.0 0.00 0.00 0.00 56 1015.7
20260904150904 33 217 0.0 0.0 0.00 0.00 0.00 57 1015.6
20260904145404 31 250 0.0 0.0 0.00 0.00 0.00 62 1015.7
20260904144904 31 239 0.0 0.0 0.00 0.00 0.00 64 1015.6
20260904144404 31 231 0.0 0.0 0.00 0.00 0.00 64 1015.6
20260904143904 30 234 0.0 0.0 0.00 0.00 0.00 66 1015.7
20260904142904 30 232 0.0 0.0 0.00 0.00 0.00 68 1015.6
20260904142404 29 228 0.0 0.0 0.00 0.00 0.00 69 1015.7
20260904141904 29 229 0.0 0.0 0.00 0.00 0.00 71 1015.6
20260904141404 28 229 0.0 0.0 0.00 0.00 0.00 72 1015.6
20260904140904 28 229 0.0 0.0 0.00 0.00 0.00 73 1015.5
20260904140403 28 229 0.0 0.0 0.00 0.00 0.00 74 1015.5
20260904135904 27 229 0.0 0.0 0.00 0.00 0.00 75 1015.5
20260904135404 27 197 0.0 0.0 0.00 0.00 0.00 77 1015.6
20260904134903 27 174 0.0 0.0 0.00 0.00 0.00 78 1015.5
20260904134404 26 174 0.0 0.0 0.00 0.00 0.00 79 1015.6
20260904133904 26 174 0.0 0.0 0.00 0.00 0.00 80 1015.6
20260904133404 26 174 0.0 0.0 0.00 0.00 0.00 81 1015.5
20260904132904 26 174 0.0 0.0 0.00 0.00 0.00 81 1015.5
20260904131904 25 142 0.0 0.0 0.00 0.00 0.00 82 1015.5
20260904131404 25 182 0.0 0.0 0.00 0.00 0.00 82 1015.5
20260904130903 24 182 0.0 0.0 0.00 0.00 0.00 82 1015.4
20260904125904 24 206 0.0 0.0 0.00 0.00 0.00 82 1015.4
20260904125404 23 206 0.0 0.0 0.00 0.00 0.00 82 1015.4
20260904124904 23 206 0.0 0.0 0.00 0.00 0.00 82 1015.4
20260904123903 23 206 0.0 0.0 0.00 0.00 0.00 82 1015.4
20260904123403 23 206 0.0 0.0 0.00 0.00 0.00 82 1015.4
20260904122904 23 206 0.0 0.0 0.00 0.00 0.00 82 1015.5
20260904122404 23 206 0.0 0.0 0.00 0.00 0.00 82 1015.4
20260904121904 23 206 0.0 0.0 0.00 0.00 0.00 82 1015.3
20260904121404 22 206 0.0 0.0 0.00 0.00 0.00 82 1015.3
20260904120904 22 206 0.0 0.0 0.00 0.00 0.00 82 1015.2
20260904120404 22 206 0.0 0.0 0.00 0.00 0.00 82 1015.2
20260904115903 22 206 0.0 0.0 0.00 0.00 0.00 82 1015.2
20260904115403 22 206 0.0 0.0 0.00 0.00 0.00 82 1015.2
20260904114904 22 206 0.0 0.0 0.00 0.00 0.00 82 1015.2
20260904114404 22 206 0.0 0.0 0.00 0.00 0.00 82 1015.1
20260904113403 22 204 0.0 0.0 0.00 0.00 0.00 82 1014.9
20260904112904 22 203 0.0 0.0 0.00 0.00 0.00 82 1014.9
20260904112404 22 203 0.0 0.0 0.00 0.00 0.00 82 1014.7
20260904111904 22 203 0.0 0.0 0.00 0.00 0.00 82 1014.7
20260904111404 22 203 0.0 0.0 0.00 0.00 0.00 82 1014.6
20260904110903 22 203 0.0 0.0 0.00 0.00 0.00 82 1014.5
20260904105904 22 203 0.0 0.0 0.00 0.00 0.00 82 1014.4
20260904105404 22 203 0.0 0.0 0.00 0.00 0.00 82 1014.4
20260904104903 22 203 0.0 0.0 0.00 0.00 0.00 82 1014.4
20260904104404 22 203 0.0 0.0 0.00 0.00 0.00 82 1014.4
20260904103904 22 203 0.0 0.0 0.00 0.00 0.00 82 1014.4
20260904103404 22 203 0.0 0.0 0.00 0.00 0.00 82 1014.3
20260904102903 22 203 0.0 0.0 0.00 0.00 0.00 82 1014.3
20260904102403 22 203 0.0 0.0 0.00 0.00 0.00 82 1014.2
20260904101904 22 203 0.0 0.0 0.00 0.00 0.00 82 1014.3
20260904101404 22 203 0.0 0.0 0.00 0.00 0.00 82 1014.4
20260904100903 22 203 0.0 0.0 0.00 0.00 0.00 82 1014.3
20260904100403 22 203 0.0 0.0 0.00 0.00 0.00 82 1014.4
20260904095904 22 204 0.0 0.0 0.00 0.00 0.00 82 1014.2
20260904095403 22 203 0.0 0.0 0.00 0.00 0.00 82 1014.3
20260904094904 22 203 0.0 0.0 0.00 0.00 0.00 82 1014.2
20260904094404 22 203 0.0 0.0 0.00 0.00 0.00 82 1014.3
20260904093403 22 203 0.0 0.0 0.00 0.00 0.00 82 1014.3
20260904092404 22 204 0.0 0.0 0.00 0.00 0.00 82 1014.2
20260904091904 22 203 0.0 0.0 0.00 0.00 0.00 81 1014.1
20260904091403 22 204 0.0 0.0 0.00 0.00 0.00 81 1014.1
20260904090905 22 204 0.0 0.0 0.00 0.00 0.00 81 1014.0
20260904090405 22 204 0.0 0.0 0.00 0.00 0.00 81 1014.0
20260904085906 22 204 0.0 0.0 0.00 0.00 0.00 81 1014.0
20260904085405 22 204 0.0 0.0 0.00 0.00 0.00 81 1014.1
20260904084905 22 204 0.0 0.0 0.00 0.00 0.00 81 1014.0
20260904084406 22 204 0.0 0.0 0.00 0.00 0.00 81 1013.9
20260904083906 23 203 0.0 0.0 0.00 0.00 0.00 81 1013.9
20260904083405 23 204 0.0 0.0 0.00 0.00 0.00 81 1013.9
20260904082405 23 204 0.0 0.0 0.00 0.00 0.00 81 1013.9
20260904081905 23 204 0.0 0.0 0.00 0.00 0.00 81 1013.9
20260904080905 23 204 0.0 0.0 0.00 0.00 0.00 81 1013.8
20260904075905 23 204 0.0 0.0 0.00 0.00 0.00 81 1013.7
20260904075405 23 204 0.0 0.0 0.00 0.00 0.00 81 1013.7
20260904074905 23 204 0.0 0.0 0.00 0.00 0.00 81 1013.7
20260904074405 23 204 0.0 0.0 0.00 0.00 0.00 80 1013.7
20260904073905 23 204 0.0 0.0 0.00 0.00 0.00 80 1013.8
20260904073405 23 204 0.0 0.0 0.00 0.00 0.00 80 1013.8
20260904072405 23 204 0.0 0.0 0.00 0.00 0.00 81 1013.7
20260904071405 23 204 0.0 0.0 0.00 0.00 0.00 80 1013.8
20260904070905 23 204 0.0 0.0 0.00 0.00 0.00 80 1013.8
20260904070405 23 204 0.0 0.0 0.00 0.00 0.00 81 1013.8
20260904065905 23 204 0.0 0.0 0.00 0.00 0.00 80 1013.9
20260904065405 23 203 0.0 0.0 0.00 0.00 0.00 80 1013.9
20260904064905 23 204 0.0 0.0 0.00 0.00 0.00 80 1013.9
20260904064405 23 204 0.0 0.0 0.00 0.00 0.00 80 1014.0
20260904063905 23 204 0.0 0.0 0.00 0.00 0.00 80 1013.9
20260904063405 23 204 0.0 0.0 0.00 0.00 0.00 80 1013.9
20260904062905 23 204 0.0 0.0 0.00 0.00 0.00 80 1014.0
20260904062405 23 204 0.0 0.0 0.00 0.00 0.00 79 1014.0
20260904061906 23 204 0.0 0.0 0.00 0.00 0.00 80 1014.0
20260904061405 24 204 0.0 0.0 0.00 0.00 0.00 80 1013.9
20260904060905 24 204 0.0 0.0 0.00 0.00 0.00 80 1014.0
20260904060405 24 204 0.0 0.0 0.00 0.00 0.00 79 1014.0
20260904055905 24 204 0.0 0.0 0.00 0.00 0.00 79 1014.0
20260904055405 24 204 0.0 0.0 0.00 0.00 0.00 79 1014.1
20260904054905 24 204 0.0 0.0 0.00 0.00 0.00 79 1014.1
20260904053905 24 204 0.0 0.0 0.00 0.00 0.00 78 1014.1
20260904053405 24 204 0.0 0.0 0.00 0.00 0.00 78 1014.1
20260904052905 25 204 0.0 0.0 0.00 0.00 0.00 78 1014.1
20260904051904 25 203 0.0 0.0 0.00 0.00 0.00 78 1014.1
20260904051405 25 204 0.0 0.0 0.00 0.00 0.00 77 1014.1
20260904050905 25 204 0.0 0.0 0.00 0.00 0.00 77 1014.0
20260904050405 25 204 0.0 0.0 0.00 0.00 0.00 76 1014.0
20260904045905 25 204 0.0 0.0 0.00 0.00 0.00 76 1014.0
20260904045405 25 204 0.0 0.0 0.00 0.00 0.00 76 1014.0
20260904044405 26 203 0.0 0.0 0.00 0.00 0.00 75 1014.0
20260904043905 26 204 0.0 0.0 0.00 0.00 0.00 75 1013.9
20260904043405 26 204 0.0 0.0 0.00 0.00 0.00 75 1013.9
20260904042905 26 204 0.0 0.0 0.00 0.00 0.00 76 1013.9
20260904042405 26 204 0.0 0.0 0.00 0.00 0.00 76 1013.9
20260904041405 26 204 0.0 0.0 0.00 0.00 0.00 76 1013.9
20260904040905 26 204 0.0 0.0 0.00 0.00 0.00 76 1013.9
20260904034905 26 203 0.0 0.0 0.00 0.00 0.00 75 1014.1
20260904034405 26 204 0.0 0.0 0.00 0.00 0.00 75 1014.1
20260904033905 26 204 0.0 0.0 0.00 0.00 0.00 74 1014.1
20260904033405 26 203 0.0 0.0 0.00 0.00 0.00 74 1014.1
20260904032905 26 204 0.0 0.0 0.00 0.00 0.00 74 1014.1
20260904032405 26 204 0.0 0.0 0.00 0.00 0.00 73 1014.2
20260904030905 26 204 0.0 0.0 0.00 0.00 0.00 72 1014.2
20260904030404 26 204 0.0 0.0 0.00 0.00 0.00 72 1014.3
20260904025905 27 204 0.0 0.0 0.00 0.00 0.00 72 1014.3
20260904025405 27 204 0.0 0.0 0.00 0.00 0.00 71 1014.3
20260904024905 27 204 0.0 0.0 0.00 0.00 0.00 71 1014.3
20260904024405 27 204 0.0 0.0 0.00 0.00 0.00 70 1014.2
20260904023405 27 204 0.0 0.0 0.00 0.00 0.00 69 1014.1
20260904022905 28 204 0.0 0.0 0.00 0.00 0.00 67 1014.0
20260904022405 28 204 0.0 0.0 0.00 0.00 0.00 67 1014.0
20260904021905 28 204 0.0 0.0 0.00 0.00 0.00 67 1014.0
20260904021405 28 204 0.0 0.0 0.00 0.00 0.00 66 1013.9
20260904020904 28 204 0.0 0.0 0.00 0.00 0.00 66 1014.0
20260904020405 28 204 0.0 0.0 0.00 0.00 0.00 65 1013.9
20260904015905 28 204 0.0 0.0 0.00 0.00 0.00 64 1013.9
20260904015404 29 204 0.0 0.0 0.00 0.00 0.00 64 1013.8
20260904014905 29 204 0.0 0.0 0.00 0.00 0.00 63 1013.8
20260904014405 29 204 0.0 0.0 0.00 0.00 0.00 62 1013.7
20260904013905 29 204 0.0 0.0 0.00 0.00 0.00 62 1013.8
20260904013405 29 204 0.0 0.0 0.00 0.00 0.00 61 1013.7
20260904012905 30 204 0.0 0.0 0.00 0.00 0.00 61 1013.7
20260904012405 30 204 0.0 0.0 0.00 0.00 0.00 60 1013.7
20260904011405 30 204 0.0 0.0 0.00 0.00 0.00 59 1013.6
20260904010904 30 204 0.0 0.0 0.00 0.00 0.00 58 1013.5
20260904010404 31 204 0.0 0.0 0.00 0.00 0.00 58 1013.5
20260904005905 31 204 0.0 0.0 0.00 0.00 0.00 57 1013.5
20260904005405 31 204 0.0 0.0 0.00 0.00 0.00 56 1013.4
20260904004405 31 204 0.0 0.0 0.00 0.00 0.00 55 1013.4
20260904003905 32 204 0.0 0.0 0.00 0.00 0.00 54 1013.3
20260904003405 32 204 0.0 0.0 0.00 0.00 0.00 53 1013.3
20260904002904 32 204 0.0 0.0 0.00 0.00 0.00 53 1013.2
20260904002404 32 204 0.0 0.0 0.00 0.00 0.00 53 1013.2
20260904001904 32 204 0.0 0.0 0.00 0.00 0.00 52 1013.1
20260903235905 33 204 0.0 0.0 0.00 0.00 0.00 49 1013.1
20260903235405 34 204 0.0 0.0 0.00 0.00 0.00 49 1013.0
20260903234904 34 198 0.0 0.0 0.00 0.00 0.00 48 1013.0
20260903234404 35 198 0.0 0.0 0.00 0.00 0.00 47 1013.0
20260903233905 35 207 0.0 0.0 0.00 0.00 0.00 46 1012.9
20260903233405 35 207 0.0 0.0 0.00 0.00 0.00 45 1012.9
20260903232905 35 209 0.0 0.0 0.00 0.00 0.00 45 1012.9
20260903232404 35 124 0.0 0.0 0.00 0.00 0.00 45 1012.9
20260903231905 35 223 0.0 0.0 0.00 0.00 0.00 45 1012.9
20260903231405 35 208 0.0 0.0 0.00 0.00 0.00 45 1012.8
20260903230905 35 211 0.0 0.0 0.00 0.00 0.00 45 1012.9
20260903230404 35 211 0.0 0.0 0.00 0.00 0.00 44 1012.8
20260903225405 35 219 1.6 8.0 0.00 0.00 0.00 43 1012.8
20260903224904 36 182 0.0 11.3 0.00 0.00 0.00 42 1012.8
20260903224404 36 172 0.0 0.0 0.00 0.00 0.00 42 1012.8
20260903223904 36 225 0.0 1.6 0.00 0.00 0.00 41 1012.8
20260903222904 37 232 3.2 11.3 0.00 0.00 0.00 40 1012.8
20260903222404 37 227 0.0 0.0 0.00 0.00 0.00 41 1012.8
20260903221405 37 194 0.0 0.0 0.00 0.00 0.00 40 1012.9
20260903220904 37 191 0.0 0.0 0.00 0.00 0.00 41 1012.9